Find Starlink 5372

NORAD ID: 54838 Int'l Des: 2022-177 Owner: SPXS Country: US Constellation: starlink operational
LEOCIRCULAR

現在のビュー

3D地球を読み込み中...

About Starlink 5372

Starlink 5372 (NORAD 54838) is a starlink constellation satellite (v1.5) launched Dec 28, 2022 by SPXS of US. It operates in LEO, CIRCULAR orbit with a mass of 305.00 kg.

Starlink 5372について

説明を読み込み中...

次回通過

Passes for default location (London). Set your location on the main map for personalized predictions.

高度履歴

Loading altitude history...

軌道要素

1 54838U 22177U 26167.63693639 .00001557 00000-0 66116-4 0 9996
2 54838 43.0023 294.0577 0001582 265.8396 94.2275 15.27576796192096
Epoch: Jun 16, 2026 • Age: 43 hours

現在のステータス

高度 486.1 km
速度 7.62 km/s
衛星直下点 -16.66°S, 57.57°E
打ち上げ日 Dec 28, 2022
運用期間 3.4 years
タイプ internet

技術仕様

分類 Payload
質量 305.00 kg
乾燥質量 290.00 kg
総質量 305.00 kg
長さ 0.20 m
直径 2.80 m
スパン 9.00 m
形状 Box + pan
製造者 SPXS
バスタイプ Starlink
フェーズステータス In Orbit
所有者/国 SPXS/US

Most Searched